Location: Iesi
(43.5167°N, 13.2333°E)
Time: 01:36:11
(UTC+00:00)

Cosmos 1954 Rocket - Pass Details

Date: 08 August 2020
Orbit: 752 x 781 km, 74.0° (Epoch: 19 September)

Event Time Altitude Azimuth Distance (km) Brightness Sun altitude
Exits shadow 20:06:49 19° 175° (S) 1,778 5.5 -17.0°
Maximum altitude 20:10:27 53° 105° (ESE) 952 4.1 -17.5°
Drops below altitude 10° 20:15:37 10° 29° (NNE) 2,343 6.7 -18.2°
Sets 20:18:03 0° 25° (NNE) 3,274 7.5 -18.5°
